METEOR 2-8 DEB

Satellite information

Favourite Embed

Satellite Type and Status

DEBRISIN ORBIT

Key statistics

Satellite METEOR 2-8 DEB at a glance.

Uptime

15969

Days in orbit

Revolutions

≈ 14.3

Per day

Orbit

LEO

Low Earth Orbit

Inclination

82.5

Latest

Satellite identification and parameters

Extended collection of information and parameters for METEOR 2-8 DEB.

Object identification

Identified? True

Debris? True

Object name: METEOR 2-8 DEB

International designator: 1982-025F

Object number (NORAD): 36321

Object ID (CCSDS): 36321

Country: COMMONWEALTH OF INDEPENDENT STATES (CIS)

Current information (Y/N): Y

RCS size: SMALL

Orbital parameters

Period: 100.661 minutes

Inclination: 82.5231 deg

SMA: 7168.049 km

Apoapsis: 794.502 km

Periapsis: 785.326 km

RAAN: 359.3109 deg

Eccentricy: 0.0006401

Argument of periapsis: 268.8056 deg

Mean anomaly: 91.2396 deg

Mean motion: 14.30544339 rev/day

Mean motion (dot): 0.00008498 rev/day2

B* drag term: 0.0032518 1/REarth

Two-line elements (TLE)

Creation date: Dec. 9, 2025, 3:06 p.m.

Reference frame: TEME

Reference center: EARTH

Epoch: Dec. 9, 2025, 7:38 a.m. UTC

TLE line 0: 0 METEOR 2-8 DEB

TLE line 1: 1 36321U 82025F 25343.31838676 .00008498 00000-0 32518-2 0 9991

TLE line 2: 2 36321 82.5231 359.3109 0006401 268.8056 91.2396 14.30544339694087

Live tracking on map

Real-time ground track for satellite METEOR 2-8 DEB.

In-orbit conjunctions

A list of the most updated potential collisions computed for object METEOR 2-8 DEB.

Target Orbit TCA Probability of collision Miss distance Type
DMSP 5D-2 F13 DEB SSO 2025-02-16 07:23:58 0.0001198789 129.0 (m) DEBRIS
IRS P2 SSO 2025-01-21 18:14:01 0.0002023027 366.0 (m) PAYLOAD

Associated space launch

Second generation soviet meteorological satellite

METEOR 2-8 DEB was lifted into orbit during the mission ‘Tsiklon-3 | Meteor-2 8’, on board a Tsiklon-3 space rocket.

The launch took place on March 25, 1982, 9:50 a.m. from 32/1.

For more information about the launch, click the button.

Launch to space Tsiklon-3 | Meteor-2 8
Tsiklon-3 | Meteor-2 8

Agency: N/A

Status: Launch Successful

Launch date: March 25, 1982, 9:50 a.m. UTC

Rocket: Tsiklon-3

Launch pad: 32/1

Location: Plesetsk Cosmodrome, Russian Federation

...

Latest news about this satellite

There are no fresh news available about this satellite. Check back as we update our databases every day.


Newsletter sign-up

Weekly statistics, charts and insights to help you stay on top of the space industry.